Regional Weather Roundup
Issued by NWS Pendleton, OR

Home | Current Version | Previous Version | Text Only | Print | Product List | Glossary On
Versions: 1 2 3 4 5 6 7 8 9 10 11 12 13 14 15 16 17 18 19 20 21 22 23 24 25 26 27 28 29 30 31 32 33 34 35 36 37 38 39 40 41 42 43 44 45 46 47 48 49 50
000
ASUS46 KPDT 201325
RWRPDT
PENDLETON REGIONAL WEATHER ROUNDUP
NATIONAL WEATHER SERVICE PENDLETON OREGON
600 AM PDT WED SEP 20 2017

NOTE: FAIR INDICATES FEW OR NO CLOUDS BELOW 12,000 FEET WITH NO
SIGNIFICANT WEATHER AND/OR OBSTRUCTIONS TO VISIBILITY.

# INDICATES UNOFFICIAL STATION AND DATA

WAZ520-201410-
EAST SLOPES OF WASHINGTON CASCADES

CITY            SKY/WX      TMP DP  RH  WIND    PRES   REMARKS
#BULLFROG       N/A         38  38  100 CALM    N/A
#CLE ELUM HS    N/A         38  37  96  CALM    29.57F
#CLE ELUM LAKE  N/A         37  36  96  CALM    29.58F
#EASTON DOT     N/A         38  37  96  CALM    N/A
#ELK HTS DOT    N/A         40  40  100 CALM    N/A
#GLENWOOD       N/A         43  42  96  CALM    29.61F
#NELSON 3SW     N/A         37  35  92  CALM    29.80F
#NILE           N/A         38  36  92  W1      28.87F
#TEANAWAY 4NE   N/A         37  37  100 CALM    N/A
#TROUT LAKE 1NE N/A         43  42  96  CALM    29.63S
#TROUT LAKE 1E  N/A         42  41  96  CALM    29.65R
$$

WAZ521-201410-
SIMCOE HIGHLANDS

CITY            SKY/WX      TMP DP  RH  WIND    PRES   REMARKS
#BICKLETON HS   N/A         42  42  100 W7      29.55F
#CENTERVILLE 1SWN/A         43  40  89  CALM    29.58R
#GOLDENDALE 1NE N/A         58  28  32  CALM    N/A
#GOLDENDALE 4W  N/A         44  39  82  CALM    29.67R
#GOODNOE HILLS  N/A         46  46  100 NW5     N/A
#LYLE 6NE       N/A         44  43  96  N1      29.62R
#PITT 4SE       N/A         42  41  96  CALM    29.65R
$$

WAZ026-201410-
KITTITAS VALLEY

CITY            SKY/WX      TMP DP  RH  WIND    PRES   REMARKS
ELLENSBURG AP   CLOUDY      39  36  89  CALM    29.60S
#ELLENSBURG CWU N/A         40  37  89  CALM    29.54F
#ELLENSBURG 3NE N/A         38  36  92  CALM    27.70F
#ELLENSBURG 1E  N/A         38  36  92  NE1     29.63F
#KITTITAS 3S    N/A         38  36  92  NE1     29.59S
#MANASTASH RDG  N/A         42  42  100 S3      N/A
#ROCKY CYN DOT  N/A         40  39  96  NW2     N/A
#RYEGRASS DOT   N/A         40  37  89  S8      N/A
$$

WAZ027-201410-
YAKIMA VALLEY

CITY            SKY/WX      TMP DP  RH  WIND    PRES   REMARKS
SUNNYSIDE AP    CLOUDY      45  42  89  S3      29.61F
YAKIMA AIRPORT  LGT RAIN    46  39  76  W3      29.60F
YAKIMA-VAGABOND MOCLDY      42  35  76  CALM    29.58F
#DONALD 2NE     N/A         46  27  47  N1      29.61F
#GRANDVIEW      N/A         47  44  89  CALM    29.61F
#MABTON         N/A         48  45  89  CALM    29.59F
#MOXEE 2E       N/A         43  N/A N/A CALM    29.60F
#NACHES 2SW     N/A         43  38  82  CALM    29.61S
#OUTLOOK DOT    N/A         46  43  89  CALM    29.56F
#PARKER DOT     N/A         47  41  79  S3      29.58F
#TERRACE HTS    N/A         44  39  82  CALM    29.56F
#TOPPENISH      N/A         47  42  83  CALM    29.52S
#I82 S UMTANUM RN/A         42  36  79  NE2     N/A
#UNION GAP DOT  N/A         46  40  79  NE1     29.63F
#W YAKIMA       N/A         44  38  79  CALM    29.59F
#WHITE SWAN 5E  N/A         45  41  86  CALM    29.61R
#WILEY CITY 3W  N/A         43  35  73  CALM    29.56F
#ZILLAH DOT     N/A         47  42  83  CALM    N/A
$$

WAZ028-201410-
LOWER COLUMBIA BASIN...WASHINGTON

CITY            SKY/WX      TMP DP  RH  WIND    PRES   REMARKS
PASCO           PTCLDY      52  45  77  S8      29.61F
PROSSER AWOS    N/A         50  46  86  VRB5    29.63F
RICHLAND AWOS   MOCLDY      51  46  83  CALM    29.61F
#BENTON CITY    N/A         48  45  89  CALM    29.50F
#CONNELL 5N     N/A         44  42  93  CALM    29.60F
#CONNELL 5NW    N/A         46  44  93  S2      29.54F
#ELTOPIA 6NW    N/A         47  45  93  CALM    28.58F
#KAHLOTUS       N/A         46  43  89  W5      29.60F
#KENNEWICK 3S   N/A         49  46  89  SW5     29.60F
#PATERSON       N/A         49  46  89  SW2     29.59F
#PROSSER DOT    N/A         49  47  93  CALM    29.60F
#SAGEMOOR 2W    N/A         48  45  89  CALM    29.46F
#TOUCHET 2S     N/A         52  44  74  S2      29.59F
#WEST PASCO     N/A         50  47  89  CALM    29.58F
$$

WAZ029-201410-
FOOTHILLS OF THE BLUES...WASHINGTON

CITY            SKY/WX      TMP DP  RH  WIND    PRES   REMARKS
WALLA WALLA AP  PTCLDY      48  44  86  CALM    29.62F
#CLYDE 6NW      N/A         46  41  83  S3      29.60F
#DAYTON SCHOOL  N/A         46  38  73  CALM    29.64F
#PLEASANT VIEW 1N/A         44  40  86  SW2     29.63F
#PRESCOTT       N/A         47  42  83  CALM    29.60F
#WHITMAN COLLEGEN/A         49  43  80  CALM    29.66F
#WAITSBURG 6SSE N/A         46  42  86  E3      29.62F
#WALLA WALLA 5E N/A         49  43  80  NW5     N/A
$$

WAZ030-201410-
BLUE MOUNTAINS...WASHINGTON

CITY            SKY/WX      TMP DP  RH  WIND    PRES   REMARKS
#DIXIE 5SE      N/A         44  39  82  SE7     29.52F
$$

ORZ009-041-WAZ024-201410-
COLUMBIA RIVER GORGE

CITY            SKY/WX      TMP DP  RH  WIND    PRES   REMARKS
HOOD RIVER AP   CLOUDY      46  45  96  CALM    29.64R
THE DALLES AP   LGT RAIN    50  49  96  CALM    29.63S
#CELILO DOT     N/A         50  47  89  S3      N/A
#LYLE           N/A         50  48  93  CALM    29.64R
#MARYHILL       N/A         47  47  100 CALM    N/A
#RUFUS DOT      N/A         51  N/A N/A S3      N/A
#SMITHVILLE     N/A         50  48  93  N1      29.58S

$$

ORZ510-201410-
NORTH CENTRAL OREGON

CITY            SKY/WX      TMP DP  RH  WIND    PRES   REMARKS
#ANTELOPE       N/A         44  42  93  CALM    29.47F
#CHENOWITH 1W   N/A         44  42  93  NW1     N/A
#COW CYN RST AREN/A         44  44  100 S1      N/A
#DUFUR          N/A         45  43  93  CALM    29.58S
#DUFUR 9E       N/A         43  42  96  CALM    29.66S
#GRASS VALLEY 1SN/A         45  44  96  S6      29.65F
#KENT DOT       N/A         44  40  86  SE6     N/A
#MAUPIN SCHOOL  N/A         48  47  96  CALM    29.68R
#MORO SCHOOL    N/A         45  45  100 SW1     29.62F
#SHANIKO 4NW    N/A         42  41  96  SW5     29.59F
#TYGH VALLEY 2NEN/A         47  45  93  N2      29.61R
#WAPANITIA AIRPON/A         45  43  93  NW2     29.63R
#WASCO DOT      N/A         46  44  93  NW1     N/A
#WASCO 5NE      N/A         45  40  82  CALM    29.60F
$$

ORZ511-201410-
CENTRAL OREGON

CITY            SKY/WX      TMP DP  RH  WIND    PRES   REMARKS
BEND AIRPORT    PTCLDY      46  41  83  S13     29.66S WCI 40
MADRAS AIRPORT  LGT RAIN    N/A N/A N/A SW6     29.66R
PRINEVILLE AP   CLOUDY      46  43  89  SW7     29.65F
REDMOND AIRPORT LGT RAIN    46  42  86  S5      29.64R
#ASHWOOD SCHOOL N/A         46  44  93  CALM    29.60F
#BEND 1SW       N/A         44  40  86  W2      N/A
#BEND-AWBREY    N/A         43  41  93  S3      29.63R
#BEND-KIM LN    N/A         45  43  93  N2      29.58R
#CULVER         N/A         48  42  80  S8      29.52R
#CULVER 8W      N/A         47  42  83  SW5     29.68R
#LAKE BILLY CHINN/A         47  N/A N/A E3      29.73R
#MADRAS 4S      N/A         48  30  49  W2      29.74
#POWELL BUTTE   N/A         46  43  89  W8      29.64S
#PRINEVILLE     N/A         48  44  86  CALM    29.70F
#PRINEVILLE 3N  N/A         47  44  89  CALM    29.62R
#WARM SPRINGS   N/A         48  46  93  CALM    29.49R

$$


ORZ509-201410-
EAST SLOPES OF OREGON CASCADES

CITY            SKY/WX      TMP DP  RH  WIND    PRES   REMARKS
SISTERS AWOS    N/A         48  41  77  SW15G35 N/A    WCI 42
#CAMP SHERMAN   N/A         44  40  86  SE1     29.69R
#LA PINE 4NW    N/A         43  39  86  W2      29.68F
#LAVA BUTTE DOT N/A         42  40  93  NW2     N/A
#SISTERS ODOT   N/A         48  40  74  SW8     N/A
#SISTERS 3N     N/A         42  41  96  NW2     29.70R
#SUNRIVER       N/A         43  41  93  W2      29.65F
#TUMALO 3W      N/A         43  41  93  CALM    29.52R
#WANOGA BUTTE D N/A         36  36  100 W17     N/A    WCI 26

$$

ORZ044-201410-
LOWER COLUMBIA BASIN...OREGON

CITY            SKY/WX      TMP DP  RH  WIND    PRES   REMARKS
HERMISTON       CLOUDY      50  49  96  S7      29.61F
#BOARDMAN SCHOOLN/A         50  48  93  CALM    29.60F
#BOARDMAN 8SW   N/A         49  47  93  SW2     29.60F
#ECHO 8SW       N/A         49  46  89  S2      29.62F
#I-84 EX 198 DOTN/A         46  44  93  NE12    N/A    WCI 40
#IONE SCHOOL    N/A         48  34  58  CALM    29.62F
#UMATILLA       N/A         49  44  83  S1      29.54F
$$

ORZ507-201410-
NORTHERN FOOTHILLS OF THE BLUES

CITY            SKY/WX      TMP DP  RH  WIND    PRES   REMARKS
PENDLETON AIRPT RAIN        45  44  96  S5      29.62F FOG
#ADAMS 3WNW     N/A         44  42  93  CALM    29.60F
#ATHENA         N/A         44  42  93  S1      29.63F
#CAYUSE         N/A         45  41  86  E5      29.62F
#HELIX SCHOOL   N/A         44  42  93  N5      29.60F
#HELIX 3N       N/A         44  42  93  S15     29.60F WCI 37
#HOLDMAN 6E     N/A         43  42  96  SE10    29.41F
#M-FREEWATER 5SEN/A         45  41  86  E8      29.62F
#PENDLETON DNTN N/A         47  43  86  CALM    29.63F
#PDT AQUATIC CTRN/A         46  45  96  CALM    29.60F
#PDT SUNRIDGE   N/A         45  43  93  CALM    29.64F
#PENDLETON 7NW  N/A         47  43  86  SE5     28.58F
#PILOT ROCK 1S  N/A         45  40  82  CALM    29.64F
#PILOT ROCK     N/A         45  41  86  CALM    29.65F
#TUTUILLA       N/A         46  43  89  CALM    29.67F
#UMAPINE 2E     N/A         50  44  80  E1      29.59F
#WESTON SCHOOL  N/A         45  40  82  W1      29.57F

$$

ORZ508-201410-
SOUTHERN FOOTHILLS OF THE BLUES

CITY            SKY/WX      TMP DP  RH  WIND    PRES   REMARKS
LEXINGTON       LGT RAIN    48  48  100 SE6     29.63F
#AJAX           N/A         45  39  79  W5      29.79F
#FOSSIL SCHOOL  N/A         45  44  96  CALM    29.59S
#HEPPNER EOC    N/A         46  44  93  SE2     29.54F
#HEPPNER 4NE    N/A         43  41  93  SE1     29.59F
#LEXINGTON 2SE  N/A         49  46  89  SE5     29.59F
#MIKKALO        N/A         47  44  89  E1      29.71F
#OLEX 4N        N/A         47  45  93  CALM    29.60F
#RUGGS 5NE      N/A         43  42  96  E3      29.75F
#RUGGS 2SW      N/A         43  41  93  SE1     29.62F

$$

ORZ502-503-201410-
BLUE MOUNTAINS

CITY            SKY/WX      TMP DP  RH  WIND    PRES   REMARKS
MEACHAM         LGT RAIN    40  38  92  CALM    29.61F
#BATTLE MTN DOT N/A         40  40  100 S3      N/A
#GRANITE        N/A         38  36  92  CALM    29.59F
#GREENHORN 9SW  N/A         41  40  96  CALM    25.87F
#HEPPNER 15SE   N/A         40  38  92  E3      29.56S
#LADD CYN SMT   N/A         38  38  100 NW5     N/A
#LADD CREEK ODOTN/A         40  38  92  NW1     N/A
#LONG CREEK HS  N/A         43  43  100 CALM    N/A
#N POWDER DOT   N/A         40  39  96  W1      N/A
#PIKES PEAK     N/A         43  36  76  N15     27.99S WCI 36
#TOLLGATE       N/A         33  32  96  CALM    29.52
#TROY SCHOOL    N/A         43  40  89  CALM    29.52F
#UKIAH          N/A         43  41  93  CALM    29.53F
#WESTON 4E      N/A         40  38  92  E7      29.59F
$$

ORZ505-201410-
JOHN DAY BASIN

CITY            SKY/WX      TMP DP  RH  WIND    PRES   REMARKS
JOHN DAY        MOCLDY      51  41  68  SW16    29.63F
#JOHN DAY KJDY  N/A         50  N/A N/A CALM    28.88R
#DAYVILLE SCHOOLN/A         53  42  66  W3      29.61F
#MITCHELL       N/A         47  46  96  CALM    29.81F
#MITCHELL 8NW   N/A         45  41  86  SW2     29.65F
#MONUMENT HS    N/A         47  44  89  CALM    29.61F
#MT. VERNON 5SE N/A         48  40  74  S6      29.60F
#SPRAY SCHOOL   N/A         48  N/A N/A CALM    N/A
$$

ORZ506-201410-
OCHOCO AND JOHN DAY HIGHLANDS

CITY            SKY/WX      TMP DP  RH  WIND    PRES   REMARKS
#HORSE RIDGE DO N/A         45  39  79  SW3     N/A
#PAULINA ODOT   N/A         49  40  71  SW12    N/A    WCI 44
#PINE MTN OBS   N/A         37  36  96  CALM    N/A
#SENECA         N/A         45  N/A N/A S8      N/A
#SENECA 9NW     N/A         44  40  86  SW1     29.62F
$$

ORZ049-201410-
GRANDE RONDE VALLEY

CITY            SKY/WX      TMP DP  RH  WIND    PRES   REMARKS
LA GRANDE       RAIN        39  39  100 NW3     29.67F
#COVE           N/A         41  41  100 E5      29.70F
#COVE SCHOOL    N/A         41  40  96  CALM    29.70S
#COVE 6NW       N/A         42  40  93  CALM    29.66F
#ELGIN 3N       N/A         39  37  92  CALM    30.08F
#ELGIN 1E       N/A         41  36  82  CALM    N/A
#IMBLER SCHOOL  N/A         39  37  92  CALM    29.65S
#ISLAND CITY 4N N/A         50  49  96  CALM    29.63R
#LA GRANDE-LEFFEN/A         40  38  92  N2      30.09S
#UNION 1S       N/A         41  39  93  CALM    29.66F
$$

ORZ050-201410-
WALLOWA COUNTY

CITY            SKY/WX      TMP DP  RH  WIND    PRES   REMARKS
JOSEPH AIRPORT  LGT RAIN    37  37  100 N3      29.65F
#ENTERPRISE HS  N/A         39  37  92  CALM    29.54F
#IMNAHA 10S     N/A         40  37  89  CALM    29.66F
#JOSEPH         N/A         37  37  100 CALM    29.87F
#JOSEPH 3N      N/A         37  32  82  CALM    29.70F
#JOSEPH 3W      N/A         34  34  100 CALM    30.03F
#LOSTINE        N/A         38  35  89  CALM    29.47F
#LOSTINE 3SE    N/A         38  35  89  CALM    29.68F
#MT HOWARD 8000 N/A         29  27  92  S7      29.60F
#PROMISE 1S     N/A         36  34  92  S1      29.76F
#WALLOWA LAKE   N/A         37  35  92  CALM    29.65F
#WALLOWA SCHOOL N/A         38  36  92  CALM    29.66F



$$



USA.gov is the U.S. government's official web portal to all federal, state and local government web resources and services.